Location: Newark
(49.1147°N, 0.4158°E)
Time: 06:18:27
(UTC+00:00)

N. Korean satellite - Visible Passes

Search period start: 20 October 2019 00:00
Search period end: 30 October 2019 00:00
Orbit: 455 x 508 km, 97.2° (Epoch: 19 October)

Date Brightness Start Highest point End Pass type
(mag) Time Alt. Az. Time Alt. Az. Time Alt. Az.
20 Oct 10.2 04:49:46 10° ENE 04:51:27 13° E 04:53:07 10° ESE visible
21 Oct 6.9 05:56:17 10° NNE 05:59:53 73° ESE 06:03:32 10° S visible
21 Oct 10.2 18:11:00 10° WSW 18:12:43 13° W 18:14:25 10° WNW visible
22 Oct 8.5 05:31:09 10° NNE 05:34:32 36° E 05:37:56 10° SSE visible
22 Oct 9.2 17:44:19 10° SSW 17:47:11 24° W 17:50:06 10° NW visible
23 Oct 9.7 05:06:22 10° NE 05:09:05 20° E 05:11:48 10° SE visible
24 Oct 10.5 04:42:40 10° ENE 04:43:32 11° E 04:44:23 10° ESE visible
25 Oct 7.4 05:48:25 10° NNE 05:52:03 59° E 05:55:41 10° S visible
25 Oct 9.9 18:02:33 10° SW 18:04:46 16° W 18:07:00 10° NW visible
26 Oct 8.8 05:23:22 10° NNE 05:26:39 30° E 05:29:56 10° SSE visible
26 Oct 8.8 17:36:11 10° SSW 17:39:15 30° W 17:42:24 10° NNW visible
27 Oct 9.9 04:58:44 10° NE 05:01:09 17° E 05:03:35 10° SE visible
28 Oct 6.6 06:05:49 10° NNE 06:09:30 85° WNW 06:13:12 10° SSW visible
28 Oct 10.5 18:21:48 10° W 18:22:22 10° W 18:22:56 10° WNW visible
29 Oct 7.8 05:40:34 10° NNE 05:44:09 48° E 05:47:44 10° S visible
29 Oct 9.6 17:54:11 10° SW 17:56:47 19° W 17:59:25 10° NW visible
